Meath Environmental Platform

Observations for Trim Patrick St

Time AQI Temp °C Hum % Pres Pa CO μg/m³ H₂S μg/m³ NO μg/m³ NO₂ μg/m³ O₃ μg/m³ SO₂ μg/m³ PM1 μg/m³ PM2.5 μg/m³ PM10 μg/m³
Thursday 6 August 2026
20:52 3 20.5 50 68,853 0 8.2 1.24 13.75 54.95 4.68 2 6.42 7.06
20:51 3 20.6 50 68,829 0 7.62 1.22 15.1 57.54 4.04 2 6.42 7.06
20:50 3 20.6 50 68,825 0 7.51 1.29 13.01 58.61 4.72 2 6.42 7.06
20:49 3 20.7 50 68,823 0 7.75 1.23 14.78 55.84 4.34 2 6.43 7.08
20:48 3 20.7 50 68,819 0 7.75 1.24 19.87 50.87 4.1 2 7.2 7.92
20:47 3 20.8 50 68,813 0 8.09 1.24 24.14 43.03 3.92 2.86 7.97 8.77
20:46 3 20.8 50 68,835 0 9.64 1.24 21.96 50.45 4.59 2 6.44 7.09
20:45 3 20.8 49 68,831 0.2 10.75 1.36 14.74 57.78 5.22 2 6.45 7.1
20:44 3 20.9 49 68,831 0 6.27 1.43 11.66 57.85 4.54 2.86 7.99 8.79
20:43 3 20.9 49 68,831 0 7.16 1.25 15.24 56.65 4.13 2 7.22 7.94
20:42 3 20.9 49 68,829 0 7.35 1.26 14.97 54.04 4.16 2 6.46 7.11
20:41 3 21 49 68,829 0 8.22 1.27 15.75 57.05 5.03 2 7.23 7.95
20:40 3 20.9 49 68,827 0 6.82 1.27 14.15 58.46 4.16 2 6.47 7.12
20:39 3 21 49 68,825 0 8.16 1.28 13.11 59.21 5.15 2.86 7.24 7.96
20:38 3 21 49 68,825 0 8.08 1.28 12.91 59.68 4.65 2 6.47 7.12
20:37 3 21 49 68,823 0 6.58 1.28 12.9 59.83 4.26 2 6.47 7.12
20:36 3 21 49 68,819 0 7.9 1.27 11.56 63.49 4.61 2 7.99 8.79
20:35 3 21.1 49 68,815 0 7.5 1.28 13.09 60.54 4.66 2 6.47 7.12
20:34 3 21 49 68,809 0 7.72 1.27 13.09 62.56 4.31 2 6.48 7.13
20:33 3 21.1 49 68,798 0 7.45 1.27 11.12 61.61 4.54 2 7.24 7.97